26-04-2022, 00:00:07,    343,    0.0,    3.8,   0.00,   0.00, 1016.1,   88.9, -999.0
26-04-2022, 00:00:17,    343,    0.0,    3.7,   0.00,   0.00, 1016.1,   89.0, -999.0
26-04-2022, 00:00:27,    343,    0.0,    3.8,   0.00,   0.00, 1016.1,   89.1, -999.0
26-04-2022, 00:00:37,    343,    0.0,    3.8,   0.00,   0.00, 1016.1,   89.2, -999.0
26-04-2022, 00:00:47,    343,    0.0,    3.8,   0.00,   0.00, 1016.1,   89.1, -999.0
26-04-2022, 00:00:57,    343,    0.0,    3.7,   0.00,   0.00, 1016.1,   89.3, -999.0
26-04-2022, 00:01:07,    343,    0.0,    3.7,   0.00,   0.00, 1016.1,   89.3, -999.0
26-04-2022, 00:01:17,    343,    0.0,    3.7,   0.00,   0.00, 1016.2,   89.1, -999.0
26-04-2022, 00:01:27,    343,    0.0,    3.8,   0.00,   0.00, 1016.2,   89.1, -999.0
26-04-2022, 00:01:37,    343,    0.0,    3.8,   0.00,   0.00, 1016.1,   89.1, -999.0
26-04-2022, 00:01:47,    343,    0.0,    3.7,   0.00,   0.00, 1016.1,   89.1, -999.0
26-04-2022, 00:01:57,    343,    0.0,    3.6,   0.00,   0.00, 1016.2,   89.1, -999.0
26-04-2022, 00:02:06,    343,    0.0,    3.7,   0.00,   0.00, 1016.1,   89.1, -999.0
26-04-2022, 00:02:17,    343,    0.0,    3.6,   0.00,   0.00, 1016.1,   89.0, -999.0
26-04-2022, 00:02:26,    343,    0.0,    3.4,   0.00,   0.00, 1016.1,   89.0, -999.0
26-04-2022, 00:02:36,    343,    0.0,    3.6,   0.00,   0.00, 1016.1,   89.1, -999.0
26-04-2022, 00:02:47,    343,    0.0,    3.6,   0.00,   0.00, 1016.1,   89.1, -999.0
26-04-2022, 00:02:56,    342,    0.0,    3.6,   0.00,   0.00, 1016.1,   89.2, -999.0
26-04-2022, 00:03:06,    343,    0.0,    3.7,   0.00,   0.00, 1016.1,   89.3, -999.0
26-04-2022, 00:03:16,    343,    0.0,    3.6,   0.00,   0.00, 1016.1,   89.2, -999.0
26-04-2022, 00:03:26,    343,    0.0,    3.7,   0.00,   0.00, 1016.1,   89.2, -999.0
26-04-2022, 00:03:36,    343,    0.0,    3.6,   0.00,   0.00, 1016.1,   89.2, -999.0
26-04-2022, 00:03:46,    343,    0.0,    3.6,   0.00,   0.00, 1016.1,   89.3, -999.0
26-04-2022, 00:03:56,    343,    0.0,    3.7,   0.00,   0.00, 1016.1,   89.3, -999.0
26-04-2022, 00:04:06,    343,    0.0,    3.6,   0.00,   0.00, 1016.1,   89.3, -999.0
26-04-2022, 00:04:16,    343,    0.0,    3.6,   0.00,   0.00, 1016.2,   89.3, -999.0
26-04-2022, 00:04:26,    343,    0.0,    3.7,   0.00,   0.00, 1016.1,   89.3, -999.0
26-04-2022, 00:04:36,    344,    0.0,    3.6,   0.00,   0.00, 1016.2,   89.2, -999.0
26-04-2022, 00:04:46,    343,    0.0,    3.6,   0.00,   0.00, 1016.2,   89.4, -999.0
26-04-2022, 00:04:56,    343,    0.0,    3.7,   0.00,   0.00, 1016.2,   89.5, -999.0
26-04-2022, 00:05:06,    344,    0.0,    3.7,   0.00,   0.00, 1016.1,   89.5, -999.0
26-04-2022, 00:05:15,    344,    0.0,    3.7,   0.00,   0.00, 1016.1,   89.5, -999.0
26-04-2022, 00:05:26,    344,    0.0,    3.6,   0.00,   0.00, 1016.1,   89.6, -999.0
26-04-2022, 00:05:36,    344,    0.0,    3.7,   0.00,   0.00, 1016.2,   89.4, -999.0
26-04-2022, 00:05:45,    343,    0.0,    3.7,   0.00,   0.00, 1016.2,   89.4, -999.0
26-04-2022, 00:05:56,    344,    0.0,    3.6,   0.00,   0.00, 1016.2,   89.4, -999.0
26-04-2022, 00:06:05,    344,    0.0,    3.7,   0.00,   0.00, 1016.2,   89.5, -999.0
26-04-2022, 00:06:15,    344,    0.0,    3.6,   0.00,   0.00, 1016.2,   89.5, -999.0
26-04-2022, 00:06:25,    344,    0.0,    3.7,   0.00,   0.00, 1016.2,   89.4, -999.0
26-04-2022, 00:06:35,    343,    0.0,    3.7,   0.00,   0.00, 1016.2,   89.4, -999.0
26-04-2022, 00:06:45,    344,    0.0,    3.7,   0.00,   0.00, 1016.2,   89.5, -999.0
26-04-2022, 00:06:55,    344,    0.0,    3.6,   0.00,   0.00, 1016.2,   89.6, -999.0
26-04-2022, 00:07:05,    344,    0.0,    3.7,   0.00,   0.00, 1016.2,   89.6, -999.0
26-04-2022, 00:07:15,    343,    0.0,    3.7,   0.00,   0.00, 1016.1,   89.7, -999.0
26-04-2022, 00:07:25,    343,    0.0,    3.6,   0.00,   0.00, 1016.2,   89.7, -999.0
26-04-2022, 00:07:35,    344,    0.0,    3.5,   0.00,   0.00, 1016.2,   89.6, -999.0
26-04-2022, 00:07:45,    344,    0.0,    3.7,   0.00,   0.00, 1016.2,   89.6, -999.0
26-04-2022, 00:07:55,    344,    0.0,    3.7,   0.00,   0.00, 1016.2,   89.6, -999.0
26-04-2022, 00:08:05,    344,    0.0,    3.8,   0.00,   0.00, 1016.2,   89.5, -999.0
26-04-2022, 00:08:15,    343,    0.0,    3.7,   0.00,   0.00, 1016.2,   89.5, -999.0
26-04-2022, 00:08:25,    344,    0.0,    3.6,   0.00,   0.00, 1016.2,   89.4, -999.0
26-04-2022, 00:08:35,    344,    0.0,    3.5,   0.00,   0.00, 1016.2,   89.5, -999.0
26-04-2022, 00:08:45,    344,    0.0,    3.6,   0.00,   0.00, 1016.2,   89.6, -999.0
26-04-2022, 00:08:54,    344,    0.0,    3.7,   0.00,   0.00, 1016.2,   89.6, -999.0
26-04-2022, 00:09:05,    344,    0.0,    3.6,   0.00,   0.00, 1016.2,   89.6, -999.0
26-04-2022, 00:09:15,    344,    0.0,    3.7,   0.00,   0.00, 1016.1,   89.6, -999.0
26-04-2022, 00:09:24,    344,    0.0,    3.6,   0.00,   0.00, 1016.2,   89.5, -999.0
26-04-2022, 00:09:34,    344,    0.0,    3.6,   0.00,   0.00, 1016.1,   89.5, -999.0
26-04-2022, 00:09:44,    344,    0.0,    3.6,   0.00,   0.00, 1016.2,   89.5, -999.0
26-04-2022, 00:09:54,    344,    0.0,    3.6,   0.00,   0.00, 1016.2,   89.4, -999.0
26-04-2022, 00:10:04,    344,    0.0,    3.6,   0.00,   0.00, 1016.2,   89.5, -999.0
26-04-2022, 00:10:14,    344,    0.0,    3.6,   0.00,   0.00, 1016.1,   89.5, -999.0
26-04-2022, 00:10:24,    344,    0.0,    3.6,   0.00,   0.00, 1016.2,   89.5, -999.0
26-04-2022, 00:10:34,    344,    0.0,    3.5,   0.00,   0.00, 1016.2,   89.5, -999.0
26-04-2022, 00:10:44,    344,    0.0,    3.6,   0.00,   0.00, 1016.2,   89.6, -999.0
26-04-2022, 00:10:54,    344,    0.0,    3.6,   0.00,   0.00, 1016.2,   89.6, -999.0
26-04-2022, 00:11:04,    344,    0.0,    3.6,   0.00,   0.00, 1016.2,   89.6, -999.0
26-04-2022, 00:11:14,    344,    0.0,    3.5,   0.00,   0.00, 1016.2,   89.7, -999.0
26-04-2022, 00:11:24,    343,    0.0,    3.6,   0.00,   0.00, 1016.2,   89.7, -999.0
26-04-2022, 00:11:34,    344,    0.0,    3.7,   0.00,   0.00, 1016.2,   89.7, -999.0
26-04-2022, 00:11:44,    344,    0.0,    3.6,   0.00,   0.00, 1016.2,   89.7, -999.0
26-04-2022, 00:11:54,    344,    0.0,    3.6,   0.00,   0.00, 1016.2,   89.6, -999.0
26-04-2022, 00:12:03,    344,    0.0,    3.6,   0.00,   0.00, 1016.2,   89.5, -999.0
26-04-2022, 00:12:14,    344,    0.0,    3.6,   0.00,   0.00, 1016.2,   89.6, -999.0
26-04-2022, 00:12:24,    344,    0.0,    3.6,   0.00,   0.00, 1016.2,   89.6, -999.0
26-04-2022, 00:12:33,    343,    0.0,    3.6,   0.00,   0.00, 1016.2,   89.6, -999.0
26-04-2022, 00:12:44,    344,    0.0,    3.6,   0.00,   0.00, 1016.2,   89.5, -999.0
26-04-2022, 00:12:53,    344,    0.0,    3.6,   0.00,   0.00, 1016.2,   89.6, -999.0
26-04-2022, 00:13:03,    344,    0.0,    3.6,   0.00,   0.00, 1016.2,   89.6, -999.0
26-04-2022, 00:13:13,    344,    0.0,    3.6,   0.00,   0.00, 1016.2,   89.7, -999.0
26-04-2022, 00:13:23,    347,    0.0,    3.6,   0.00,   0.00, 1016.2,   89.8, -999.0
26-04-2022, 00:13:33,    343,    0.0,    3.6,   0.00,   0.00, 1016.2,   89.7, -999.0
26-04-2022, 00:13:43,    344,    0.0,    3.5,   0.00,   0.00, 1016.2,   89.7, -999.0
26-04-2022, 00:13:53,    344,    0.0,    3.6,   0.00,   0.00, 1016.2,   89.7, -999.0
26-04-2022, 00:14:03,    344,    0.0,    3.6,   0.00,   0.00, 1016.2,   89.9, -999.0
26-04-2022, 00:14:13,    344,    0.0,    3.5,   0.00,   0.00, 1016.2,   89.9, -999.0
26-04-2022, 00:14:23,    344,    0.0,    3.5,   0.00,   0.00, 1016.2,   89.8, -999.0
26-04-2022, 00:14:33,    344,    0.0,    3.6,   0.00,   0.00, 1016.2,   89.8, -999.0
26-04-2022, 00:14:43,    344,    0.0,    3.6,   0.00,   0.00, 1016.2,   89.9, -999.0
26-04-2022, 00:14:53,    344,    0.0,    3.6,   0.00,   0.00, 1016.2,   89.9, -999.0
26-04-2022, 00:15:03,    343,    0.0,    3.6,   0.00,   0.00, 1016.2,   89.8, -999.0
26-04-2022, 00:15:13,    344,    0.0,    3.6,   0.00,   0.00, 1016.2,   89.8, -999.0
26-04-2022, 00:15:23,    344,    0.0,    3.5,   0.00,   0.00, 1016.2,   89.9, -999.0
26-04-2022, 00:15:33,    344,    0.0,    3.5,   0.00,   0.00, 1016.2,   89.9, -999.0
26-04-2022, 00:15:42,    344,    0.0,    3.6,   0.00,   0.00, 1016.2,   89.9, -999.0
26-04-2022, 00:15:53,    343,    0.0,    3.4,   0.00,   0.00, 1016.2,   89.9, -999.0
26-04-2022, 00:16:02,    343,    0.0,    3.6,   0.00,   0.00, 1016.2,   89.9, -999.0
26-04-2022, 00:16:12,    343,    0.0,    3.5,   0.00,   0.00, 1016.2,   89.9, -999.0
26-04-2022, 00:16:22,    343,    0.0,    3.5,   0.00,   0.00, 1016.2,   89.9, -999.0
26-04-2022, 00:16:32,    343,    0.0,    3.5,   0.00,   0.00, 1016.2,   90.0, -999.0
26-04-2022, 00:16:42,    343,    0.0,    3.5,   0.00,   0.00, 1016.2,   90.1, -999.0
26-04-2022, 00:16:52,    343,    0.0,    3.5,   0.00,   0.00, 1016.2,   90.0, -999.0
26-04-2022, 00:17:02,    343,    0.0,    3.6,   0.00,   0.00, 1016.2,   90.1, -999.0
26-04-2022, 00:17:12,    344,    0.0,    3.5,   0.00,   0.00, 1016.2,   90.1, -999.0
26-04-2022, 00:17:22,    343,    0.0,    3.5,   0.00,   0.00, 1016.2,   90.2, -999.0
26-04-2022, 00:17:32,    343,    0.0,    3.5,   0.00,   0.00, 1016.3,   90.2, -999.0
26-04-2022, 00:17:42,    343,    0.0,    3.5,   0.00,   0.00, 1016.2,   90.2, -999.0
26-04-2022, 00:17:52,    343,    0.0,    3.5,   0.00,   0.00, 1016.2,   90.1, -999.0
26-04-2022, 00:18:02,    343,    0.0,    3.5,   0.00,   0.00, 1016.2,   90.1, -999.0
26-04-2022, 00:18:12,    343,    0.0,    3.2,   0.00,   0.00, 1016.2,   90.1, -999.0
26-04-2022, 00:18:22,    343,    0.0,    3.4,   0.00,   0.00, 1016.2,   90.2, -999.0
26-04-2022, 00:18:32,    343,    0.0,    3.3,   0.00,   0.00, 1016.2,   90.2, -999.0
26-04-2022, 00:18:42,    343,    0.0,    3.4,   0.00,   0.00, 1016.2,   90.2, -999.0
26-04-2022, 00:18:51,    343,    0.0,    3.5,   0.00,   0.00, 1016.2,   90.3, -999.0
26-04-2022, 00:19:02,    347,    0.0,    3.5,   0.00,   0.00, 1016.2,   90.3, -999.0
26-04-2022, 00:19:11,    347,    0.0,    3.5,   0.00,   0.00, 1016.2,   90.4, -999.0
26-04-2022, 00:19:21,    347,    0.0,    3.5,   0.00,   0.00, 1016.2,   90.5, -999.0
26-04-2022, 00:19:32,    346,    0.0,    3.5,   0.00,   0.00, 1016.2,   90.5, -999.0
26-04-2022, 00:19:41,    347,    0.0,    3.4,   0.00,   0.00, 1016.2,   90.5, -999.0
26-04-2022, 00:19:51,    346,    0.0,    3.5,   0.00,   0.00, 1016.2,   90.4, -999.0
26-04-2022, 00:20:01,    347,    0.0,    3.5,   0.00,   0.00, 1016.2,   90.6, -999.0
26-04-2022, 00:20:11,    347,    0.0,    3.5,   0.00,   0.00, 1016.2,   90.5, -999.0
26-04-2022, 00:20:21,    346,    0.0,    3.5,   0.00,   0.00, 1016.2,   90.6, -999.0
26-04-2022, 00:20:31,    346,    0.0,    3.5,   0.00,   0.00, 1016.2,   90.5, -999.0
26-04-2022, 00:20:41,    347,    0.0,    3.5,   0.00,   0.00, 1016.2,   90.5, -999.0
26-04-2022, 00:20:51,    347,    0.0,    3.5,   0.00,   0.00, 1016.3,   90.5, -999.0
26-04-2022, 00:21:01,    347,    0.0,    3.4,   0.00,   0.00, 1016.2,   90.4, -999.0
26-04-2022, 00:21:11,    347,    0.0,    3.5,   0.00,   0.00, 1016.2,   90.6, -999.0
26-04-2022, 00:21:21,    346,    0.0,    3.5,   0.00,   0.00, 1016.2,   90.5, -999.0
26-04-2022, 00:21:31,    346,    0.0,    3.4,   0.00,   0.00, 1016.3,   90.5, -999.0
26-04-2022, 00:21:41,    346,    0.0,    3.5,   0.00,   0.00, 1016.3,   90.6, -999.0
26-04-2022, 00:21:51,    347,    0.0,    3.4,   0.00,   0.00, 1016.2,   90.6, -999.0
26-04-2022, 00:22:01,    346,    0.0,    3.4,   0.00,   0.00, 1016.2,   90.5, -999.0
26-04-2022, 00:22:11,    350,    0.0,    3.3,   0.00,   0.00, 1016.2,   90.6, -999.0
26-04-2022, 00:22:20,    346,    0.0,    3.3,   0.00,   0.00, 1016.3,   90.5, -999.0
26-04-2022, 00:22:30,    346,    0.0,    3.4,   0.00,   0.00, 1016.2,   90.6, -999.0
26-04-2022, 00:22:41,    346,    0.0,    3.4,   0.00,   0.00, 1016.3,   90.5, -999.0
26-04-2022, 00:22:50,    346,    0.0,    3.3,   0.00,   0.00, 1016.3,   90.5, -999.0
26-04-2022, 00:23:00,    346,    0.0,    3.4,   0.00,   0.00, 1016.2,   90.4, -999.0
26-04-2022, 00:23:10,    346,    0.0,    3.3,   0.00,   0.00, 1016.3,   90.4, -999.0
26-04-2022, 00:23:20,    347,    0.0,    3.3,   0.00,   0.00, 1016.2,   90.5, -999.0
26-04-2022, 00:23:30,    346,    0.0,    3.5,   0.00,   0.00, 1016.3,   90.5, -999.0
26-04-2022, 00:23:40,    346,    0.0,    3.4,   0.00,   0.00, 1016.3,   90.7, -999.0
26-04-2022, 00:23:50,    347,    0.0,    3.4,   0.00,   0.00, 1016.3,   90.8, -999.0
26-04-2022, 00:24:00,    346,    0.0,    3.4,   0.00,   0.00, 1016.3,   90.7, -999.0
26-04-2022, 00:24:10,    346,    0.0,    3.2,   0.00,   0.00, 1016.3,   90.7, -999.0
26-04-2022, 00:24:20,    346,    0.0,    3.4,   0.00,   0.00, 1016.3,   90.7, -999.0
26-04-2022, 00:24:30,    346,    0.0,    3.3,   0.00,   0.00, 1016.3,   90.7, -999.0
26-04-2022, 00:24:40,    347,    0.0,    3.4,   0.00,   0.00, 1016.3,   90.7, -999.0
26-04-2022, 00:24:50,    346,    0.0,    3.4,   0.00,   0.00, 1016.2,   90.7, -999.0
26-04-2022, 00:25:00,    346,    0.0,    3.4,   0.00,   0.00, 1016.3,   90.6, -999.0
26-04-2022, 00:25:10,    346,    0.0,    3.4,   0.00,   0.00, 1016.3,   90.7, -999.0
26-04-2022, 00:25:20,    346,    0.0,    3.4,   0.00,   0.00, 1016.2,   90.6, -999.0
26-04-2022, 00:25:30,    346,    0.0,    3.4,   0.00,   0.00, 1016.3,   90.7, -999.0
26-04-2022, 00:25:39,    346,    0.0,    3.3,   0.00,   0.00, 1016.3,   90.7, -999.0
26-04-2022, 00:25:50,    346,    0.0,    3.4,   0.00,   0.00, 1016.3,   90.6, -999.0
26-04-2022, 00:25:59,    346,    0.0,    3.4,   0.00,   0.00, 1016.3,   90.7, -999.0
26-04-2022, 00:26:09,    346,    0.0,    3.3,   0.00,   0.00, 1016.3,   90.8, -999.0
26-04-2022, 00:26:19,    346,    0.0,    3.4,   0.00,   0.00, 1016.3,   90.8, -999.0
26-04-2022, 00:26:29,    346,    0.0,    3.4,   0.00,   0.00, 1016.3,   90.8, -999.0
26-04-2022, 00:26:39,    346,    0.0,    3.3,   0.00,   0.00, 1016.3,   90.7, -999.0
26-04-2022, 00:26:49,    346,    0.0,    3.3,   0.00,   0.00, 1016.2,   90.7, -999.0
26-04-2022, 00:26:59,    346,    0.0,    3.3,   0.00,   0.00, 1016.3,   90.6, -999.0
26-04-2022, 00:27:09,    346,    0.0,    3.3,   0.00,   0.00, 1016.3,   90.7, -999.0
26-04-2022, 00:27:19,    346,    0.0,    3.3,   0.00,   0.00, 1016.3,   90.8, -999.0
26-04-2022, 00:27:29,    346,    0.0,    3.3,   0.00,   0.00, 1016.2,   90.8, -999.0
26-04-2022, 00:27:39,    346,    0.0,    3.3,   0.00,   0.00, 1016.3,   90.8, -999.0
26-04-2022, 00:27:49,    346,    0.0,    3.4,   0.00,   0.00, 1016.3,   90.8, -999.0
26-04-2022, 00:27:59,    346,    0.0,    3.3,   0.00,   0.00, 1016.2,   90.9, -999.0
26-04-2022, 00:28:09,    346,    0.0,    3.3,   0.00,   0.00, 1016.3,   90.8, -999.0
26-04-2022, 00:28:19,    346,    0.0,    3.4,   0.00,   0.00, 1016.3,   90.8, -999.0
26-04-2022, 00:28:29,    346,    0.0,    3.3,   0.00,   0.00, 1016.3,   90.7, -999.0
26-04-2022, 00:28:39,    346,    0.0,    3.2,   0.00,   0.00, 1016.3,   90.7, -999.0
26-04-2022, 00:28:48,    346,    0.0,    3.3,   0.00,   0.00, 1016.3,   90.9, -999.0
26-04-2022, 00:28:59,    346,    0.0,    3.3,   0.00,   0.00, 1016.3,   90.9, -999.0
26-04-2022, 00:29:09,    346,    0.0,    3.4,   0.00,   0.00, 1016.3,   91.0, -999.0
26-04-2022, 00:29:18,    346,    0.0,    3.4,   0.00,   0.00, 1016.3,   91.0, -999.0
26-04-2022, 00:29:28,    347,    0.0,    3.3,   0.00,   0.00, 1016.3,   90.9, -999.0
26-04-2022, 00:29:38,    346,    0.0,    3.4,   0.00,   0.00, 1016.3,   90.9, -999.0
26-04-2022, 00:29:48,    346,    0.0,    3.3,   0.00,   0.00, 1016.3,   90.9, -999.0
26-04-2022, 00:29:58,    346,    0.0,    3.3,   0.00,   0.00, 1016.3,   90.9, -999.0
26-04-2022, 00:30:08,    346,    0.0,    3.3,   0.00,   0.00, 1016.3,   90.9, -999.0
26-04-2022, 00:30:18,    346,    0.0,    3.3,   0.00,   0.00, 1016.3,   90.9, -999.0
26-04-2022, 00:30:28,    346,    0.0,    3.3,   0.00,   0.00, 1016.3,   91.0, -999.0
26-04-2022, 00:30:38,    346,    0.0,    3.3,   0.00,   0.00, 1016.3,   91.2, -999.0
26-04-2022, 00:30:48,    347,    0.0,    3.3,   0.00,   0.00, 1016.3,   91.2, -999.0
26-04-2022, 00:30:58,    343,    0.0,    3.3,   0.00,   0.00, 1016.3,   91.2, -999.0
26-04-2022, 00:31:08,    343,    0.0,    3.3,   0.00,   0.00, 1016.3,   91.1, -999.0
26-04-2022, 00:31:18,    343,    0.0,    3.3,   0.00,   0.00, 1016.3,   91.2, -999.0
26-04-2022, 00:31:28,    343,    0.0,    3.3,   0.00,   0.00, 1016.3,   91.2, -999.0
26-04-2022, 00:31:38,    343,    0.0,    3.3,   0.00,   0.00, 1016.3,   91.2, -999.0
26-04-2022, 00:31:48,    343,    0.0,    3.4,   0.00,   0.00, 1016.3,   91.2, -999.0
26-04-2022, 00:31:57,    343,    0.0,    3.3,   0.00,   0.00, 1016.3,   91.2, -999.0
26-04-2022, 00:32:08,    343,    0.0,    3.3,   0.00,   0.00, 1016.3,   91.2, -999.0
26-04-2022, 00:32:18,    343,    0.0,    3.3,   0.00,   0.00, 1016.3,   91.2, -999.0
26-04-2022, 00:32:27,    343,    0.0,    3.3,   0.00,   0.00, 1016.3,   91.1, -999.0
26-04-2022, 00:32:38,    343,    0.0,    3.2,   0.00,   0.00, 1016.3,   91.1, -999.0
26-04-2022, 00:32:48,    343,    0.0,    3.3,   0.00,   0.00, 1016.3,   91.0, -999.0
26-04-2022, 00:32:57,    343,    0.0,    3.3,   0.00,   0.00, 1016.3,   91.1, -999.0
26-04-2022, 00:33:07,    343,    0.0,    3.3,   0.00,   0.00, 1016.3,   91.1, -999.0
26-04-2022, 00:33:17,    343,    0.0,    3.3,   0.00,   0.00, 1016.3,   91.2, -999.0
26-04-2022, 00:33:27,    343,    0.0,    3.2,   0.00,   0.00, 1016.3,   91.2, -999.0
26-04-2022, 00:33:37,    343,    0.0,    3.2,   0.00,   0.00, 1016.3,   91.3, -999.0
26-04-2022, 00:33:47,    343,    0.0,    3.2,   0.00,   0.00, 1016.3,   91.2, -999.0
26-04-2022, 00:33:57,    343,    0.0,    3.3,   0.00,   0.00, 1016.3,   91.3, -999.0
26-04-2022, 00:34:07,    343,    0.0,    3.2,   0.00,   0.00, 1016.3,   91.3, -999.0
26-04-2022, 00:34:17,    343,    0.0,    3.3,   0.00,   0.00, 1016.3,   91.3, -999.0
26-04-2022, 00:34:27,    343,    0.0,    3.2,   0.00,   0.00, 1016.3,   91.4, -999.0
26-04-2022, 00:34:37,    343,    0.0,    3.3,   0.00,   0.00, 1016.3,   91.5, -999.0
26-04-2022, 00:34:47,    343,    0.0,    3.3,   0.00,   0.00, 1016.3,   91.4, -999.0
26-04-2022, 00:34:57,    343,    0.0,    3.3,   0.00,   0.00, 1016.3,   91.5, -999.0
26-04-2022, 00:35:07,    343,    0.0,    3.3,   0.00,   0.00, 1016.3,   91.5, -999.0
26-04-2022, 00:35:17,    343,    0.0,    3.3,   0.00,   0.00, 1016.3,   91.5, -999.0
26-04-2022, 00:35:27,    343,    0.0,    3.3,   0.00,   0.00, 1016.3,   91.6, -999.0
26-04-2022, 00:35:36,    344,    0.0,    3.3,   0.00,   0.00, 1016.3,   91.6, -999.0
26-04-2022, 00:35:47,    343,    0.0,    3.3,   0.00,   0.00, 1016.3,   91.6, -999.0
26-04-2022, 00:35:57,    343,    0.0,    3.3,   0.00,   0.00, 1016.3,   91.6, -999.0
26-04-2022, 00:36:06,    343,    0.0,    3.3,   0.00,   0.00, 1016.3,   91.7, -999.0
26-04-2022, 00:36:16,    343,    0.0,    3.3,   0.00,   0.00, 1016.3,   91.7, -999.0
26-04-2022, 00:36:26,    343,    0.0,    3.3,   0.00,   0.00, 1016.3,   91.7, -999.0
26-04-2022, 00:36:36,    343,    0.0,    3.3,   0.00,   0.00, 1016.3,   91.7, -999.0
26-04-2022, 00:36:46,    343,    0.0,    3.3,   0.00,   0.00, 1016.3,   91.7, -999.0
26-04-2022, 00:36:56,    344,    0.0,    3.3,   0.00,   0.00, 1016.3,   91.7, -999.0
26-04-2022, 00:37:06,    343,    0.0,    3.3,   0.00,   0.00, 1016.3,   91.8, -999.0
26-04-2022, 00:37:16,    343,    0.0,    3.3,   0.00,   0.00, 1016.3,   91.8, -999.0
26-04-2022, 00:37:26,    343,    0.0,    3.3,   0.00,   0.00, 1016.3,   91.7, -999.0
26-04-2022, 00:37:36,    343,    0.0,    3.3,   0.00,   0.00, 1016.3,   91.8, -999.0
26-04-2022, 00:37:46,    343,    0.0,    3.2,   0.00,   0.00, 1016.3,   91.8, -999.0
26-04-2022, 00:37:56,    343,    0.0,    3.3,   0.00,   0.00, 1016.3,   91.7, -999.0
26-04-2022, 00:38:06,    343,    0.0,    3.2,   0.00,   0.00, 1016.3,   91.9, -999.0
26-04-2022, 00:38:16,    343,    0.0,    3.2,   0.00,   0.00, 1016.3,   91.8, -999.0
26-04-2022, 00:38:26,    343,    0.0,    3.3,   0.00,   0.00, 1016.3,   91.8, -999.0
26-04-2022, 00:38:36,    343,    0.0,    3.3,   0.00,   0.00, 1016.3,   91.9, -999.0
26-04-2022, 00:38:45,    343,    0.0,    3.3,   0.00,   0.00, 1016.3,   91.9, -999.0
26-04-2022, 00:38:56,    343,    0.0,    3.3,   0.00,   0.00, 1016.3,   92.0, -999.0
26-04-2022, 00:39:06,    343,    0.0,    3.3,   0.00,   0.00, 1016.3,   92.0, -999.0
26-04-2022, 00:39:15,    343,    0.0,    3.3,   0.00,   0.00, 1016.3,   92.0, -999.0
26-04-2022, 00:39:25,    343,    0.0,    3.3,   0.00,   0.00, 1016.3,   92.0, -999.0
26-04-2022, 00:39:36,    343,    0.0,    3.3,   0.00,   0.00, 1016.3,   92.0, -999.0
26-04-2022, 00:39:45,    344,    0.0,    3.3,   0.00,   0.00, 1016.3,   92.0, -999.0
26-04-2022, 00:39:55,    343,    0.0,    3.3,   0.00,   0.00, 1016.3,   92.0, -999.0
26-04-2022, 00:40:05,    343,    0.0,    3.3,   0.00,   0.00, 1016.3,   92.0, -999.0
26-04-2022, 00:40:15,    343,    0.0,    3.3,   0.00,   0.00, 1016.3,   92.0, -999.0
26-04-2022, 00:40:25,    343,    0.0,    3.3,   0.00,   0.00, 1016.3,   92.0, -999.0
26-04-2022, 00:40:35,    343,    0.0,    3.2,   0.00,   0.00, 1016.3,   92.1, -999.0
26-04-2022, 00:40:45,    342,    0.0,    3.3,   0.00,   0.00, 1016.3,   92.1, -999.0
26-04-2022, 00:40:55,    343,    0.0,    3.3,   0.00,   0.00, 1016.3,   92.0, -999.0
26-04-2022, 00:41:05,    343,    0.0,    3.3,   0.00,   0.00, 1016.3,   92.0, -999.0
26-04-2022, 00:41:15,    343,    0.0,    3.3,   0.00,   0.00, 1016.2,   92.0, -999.0
26-04-2022, 00:41:25,    343,    0.0,    3.3,   0.00,   0.00, 1016.3,   91.9, -999.0
26-04-2022, 00:41:35,    343,    0.0,    3.3,   0.00,   0.00, 1016.2,   92.0, -999.0
26-04-2022, 00:41:45,    343,    0.0,    3.2,   0.00,   0.00, 1016.3,   92.1, -999.0
26-04-2022, 00:41:54,    343,    0.0,    3.3,   0.00,   0.00, 1016.3,   92.1, -999.0
26-04-2022, 00:42:05,    343,    0.0,    3.3,   0.00,   0.00, 1016.3,   92.1, -999.0
26-04-2022, 00:42:15,    343,    0.0,    3.3,   0.00,   0.00, 1016.3,   92.2, -999.0
26-04-2022, 00:42:24,    343,    0.0,    3.4,   0.00,   0.00, 1016.3,   92.2, -999.0
26-04-2022, 00:42:34,    343,    0.0,    3.4,   0.00,   0.00, 1016.3,   92.2, -999.0
26-04-2022, 00:42:45,    343,    0.0,    3.3,   0.00,   0.00, 1016.3,   92.2, -999.0
26-04-2022, 00:42:54,    343,    0.0,    3.3,   0.00,   0.00, 1016.3,   92.1, -999.0
26-04-2022, 00:43:04,    343,    0.0,    3.4,   0.00,   0.00, 1016.3,   92.1, -999.0
26-04-2022, 00:43:15,    343,    0.0,    3.3,   0.00,   0.00, 1016.3,   92.2, -999.0
26-04-2022, 00:43:24,    344,    0.0,    3.3,   0.00,   0.00, 1016.3,   92.2, -999.0
26-04-2022, 00:43:34,    343,    0.0,    3.3,   0.00,   0.00, 1016.3,   92.3, -999.0
26-04-2022, 00:43:44,    343,    0.0,    3.2,   0.00,   0.00, 1016.3,   92.2, -999.0
26-04-2022, 00:43:54,    343,    0.0,    3.2,   0.00,   0.00, 1016.3,   92.2, -999.0
26-04-2022, 00:44:04,    343,    0.0,    3.3,   0.00,   0.00, 1016.3,   92.2, -999.0
26-04-2022, 00:44:14,    343,    0.0,    3.3,   0.00,   0.00, 1016.3,   92.2, -999.0
26-04-2022, 00:44:24,    343,    0.0,    3.3,   0.00,   0.00, 1016.3,   92.1, -999.0
26-04-2022, 00:44:34,    343,    0.0,    3.3,   0.00,   0.00, 1016.3,   92.2, -999.0
26-04-2022, 00:44:44,    343,    0.0,    3.3,   0.00,   0.00, 1016.2,   92.2, -999.0
26-04-2022, 00:44:54,    344,    0.0,    3.4,   0.00,   0.00, 1016.2,   92.3, -999.0
26-04-2022, 00:45:04,    343,    0.0,    3.3,   0.00,   0.00, 1016.3,   92.2, -999.0
26-04-2022, 00:45:14,    344,    0.0,    3.3,   0.00,   0.00, 1016.3,   92.2, -999.0
26-04-2022, 00:45:24,    343,    0.0,    3.3,   0.00,   0.00, 1016.3,   92.2, -999.0
26-04-2022, 00:45:33,    343,    0.0,    3.3,   0.00,   0.00, 1016.3,   92.2, -999.0
26-04-2022, 00:45:44,    343,    0.0,    3.3,   0.00,   0.00, 1016.2,   92.2, -999.0
26-04-2022, 00:45:54,    343,    0.0,    3.3,   0.00,   0.00, 1016.3,   92.2, -999.0
26-04-2022, 00:46:03,    343,    0.0,    3.3,   0.00,   0.00, 1016.2,   92.2, -999.0
26-04-2022, 00:46:13,    343,    0.0,    3.3,   0.00,   0.00, 1016.3,   92.2, -999.0
26-04-2022, 00:46:24,    343,    0.0,    3.3,   0.00,   0.00, 1016.3,   92.2, -999.0
26-04-2022, 00:46:33,    343,    0.0,    3.3,   0.00,   0.00, 1016.2,   92.1, -999.0
26-04-2022, 00:46:43,    343,    0.0,    3.2,   0.00,   0.00, 1016.3,   92.1, -999.0